Date String (YYYY-MM-DD hh:mm:ss) UTC,Instrument flags,absolute air pressure of the measurement (hPa),sample flow rate (lpm),inlet stack bypass flow (lpm),air temperature of the measurement (°C),ambient temperature measured by the external sensor (°C),aerosol sample conditioner tube jacket temperature (°C),OPC LED temperature (°C),internal box temperature (°C),relative humidity of the measurement (%),span deviation,mass concentration of particles derived from Lorenz-Mie calculation of OPC scattering (μg/m³),mass concentration of particles derived from Lorenz-Mie calculation of OPC scattering (μg/m³),mass concentration of particles derived from Lorenz-Mie calculation of OPC scattering (μg/m³)
DateTimeUTC,F1_M11,P_M11,Q1_M11,Q2_M11,T1_M11,T2_M11,T3_M11,T4_M11,T5_M11,U1_M11,ZSPAN_M11,X0_M11,X2_M11,X1_M11
2023-09-14 10:00:00,SystemResetWarning,0830.4,4.99,000.00,028.8,027.3,000.0,037.2,030.4,17.5,0000.0,0009.64,0004.36,0004.00
2023-09-14 10:01:00,SystemResetWarning,0830.4,5.00,000.00,028.8,027.3,000.0,037.2,030.4,17.5,0000.0,0009.23,0004.37,0003.99
2023-09-14 10:02:00,SystemResetWarning,0830.5,5.00,000.00,028.8,027.3,000.0,037.2,030.4,17.6,0000.0,0008.83,0004.38,0003.98
2023-09-14 10:03:00,SystemResetWarning,0830.4,5.01,000.00,028.8,027.3,000.0,037.2,030.4,17.7,0000.0,0008.83,0004.38,0003.99
2023-09-14 10:04:00,SystemResetWarning,0830.6,5.00,000.00,028.8,027.3,000.0,037.2,030.4,18.0,0000.0,0008.88,0004.40,0004.00
2023-09-14 10:05:00,SystemResetWarning,0830.7,5.00,000.00,028.9,027.3,000.0,037.2,030.4,18.3,0000.0,0008.81,0004.39,0004.00
2023-09-14 10:06:00,SystemResetWarning,0830.5,5.00,000.00,028.9,027.3,000.0,037.2,030.4,17.9,0000.0,0008.77,0004.37,0004.01
2023-09-14 10:07:00,SystemResetWarning,0830.5,5.00,000.00,028.9,027.4,000.0,037.2,030.4,17.8,0000.0,0008.77,0004.37,0004.02
2023-09-14 10:08:00,SystemResetWarning,0830.5,5.00,000.00,028.9,027.4,000.0,037.2,030.5,18.4,0000.0,0008.62,0004.39,0004.03
2023-09-14 10:09:00,SystemResetWarning,0830.6,5.00,000.00,028.9,027.4,000.0,037.2,030.5,18.9,0000.0,0007.84,0004.39,0004.03
2023-09-14 10:10:00,SystemResetWarning,0830.6,5.00,000.00,028.9,027.4,000.0,037.2,030.5,18.4,0000.0,0007.82,0004.39,0004.03
2023-09-14 10:11:00,SystemResetWarning,0830.6,5.00,000.00,028.9,027.4,000.0,037.2,030.5,18.2,0000.0,0007.12,0004.39,0004.02
2023-09-14 10:12:00,SystemResetWarning,0830.6,5.00,000.00,028.9,027.4,000.0,037.2,030.5,18.1,0000.0,0007.22,0004.41,0004.02
2023-09-14 10:13:00,SystemResetWarning,0830.6,5.00,000.00,028.9,027.4,000.0,037.2,030.5,18.1,0000.0,0007.20,0004.39,0004.02
2023-09-14 10:14:00,SystemResetWarning,0830.6,4.99,000.00,028.9,027.5,000.0,037.2,030.6,18.0,0000.0,0007.24,0004.38,0004.00
2023-09-14 10:15:00,SystemResetWarning,0830.6,5.00,000.00,028.9,027.5,000.0,037.2,030.6,18.0,0000.0,0007.11,0004.34,0003.99
2023-09-14 10:16:00,SystemResetWarning,0830.6,5.00,000.00,028.9,027.5,000.0,037.2,030.6,18.1,0000.0,0006.91,0004.31,0003.96
2023-09-14 10:17:00,SystemResetWarning,0830.6,5.00,000.00,028.9,027.5,000.0,037.2,030.6,18.0,0000.0,0006.98,0004.32,0003.95
2023-09-14 10:18:00,SystemResetWarning,0830.6,5.00,000.00,029.0,027.5,000.0,037.2,030.6,18.0,0000.0,0006.98,0004.32,0003.93
2023-09-14 10:19:00,SystemResetWarning,0830.6,5.00,000.00,029.0,027.5,000.0,037.2,030.6,17.9,0000.0,0006.87,0004.29,0003.92
2023-09-14 10:20:00,SystemResetWarning,0830.7,5.00,000.00,029.0,027.5,000.0,037.3,030.6,17.9,0000.0,0006.85,0004.28,0003.91
2023-09-14 10:21:00,SystemResetWarning,0830.7,5.00,000.00,029.0,027.5,000.0,037.3,030.6,17.9,0000.0,0007.10,0004.28,0003.90
2023-09-14 10:22:00,SystemResetWarning,0830.7,5.01,000.00,029.0,027.5,000.0,037.3,030.6,17.8,0000.0,0007.08,0004.26,0003.90
2023-09-14 10:23:00,SystemResetWarning,0830.7,5.01,000.00,029.0,027.5,000.0,037.3,030.6,17.6,0000.0,0006.99,0004.23,0003.90
2023-09-14 10:24:00,SystemResetWarning,0830.7,5.00,000.00,029.0,027.5,000.0,037.3,030.6,17.6,0000.0,0007.03,0004.24,0003.89
2023-09-14 10:25:00,SystemResetWarning,0830.7,5.00,000.00,029.0,027.5,000.0,037.3,030.6,17.6,0000.0,0006.92,0004.22,0003.88
2023-09-14 10:26:00,SystemResetWarning,0830.7,5.00,000.00,029.0,027.5,000.0,037.3,030.6,17.7,0000.0,0006.93,0004.24,0003.89
2023-09-14 10:27:00,SystemResetWarning,0830.7,5.00,000.00,029.0,027.5,000.0,037.3,030.6,17.8,0000.0,0006.90,0004.23,0003.89
2023-09-14 10:28:00,SystemResetWarning,0830.7,5.00,000.00,029.0,027.5,000.0,037.3,030.6,17.8,0000.0,0006.89,0004.22,0003.89
2023-09-14 10:29:00,SystemResetWarning,0830.7,5.00,000.00,029.0,027.5,000.0,037.3,030.6,17.7,0000.0,0006.93,0004.22,0003.88
2023-09-14 10:30:00,SystemResetWarning,0830.7,4.99,000.00,029.0,027.5,000.0,037.3,030.6,17.7,0000.0,0006.87,0004.21,0003.87
2023-09-14 10:31:00,SystemResetWarning,0830.8,4.99,000.00,029.0,027.5,000.0,037.3,030.6,17.7,0000.0,0006.82,0004.19,0003.86
2023-09-14 10:32:00,SystemResetWarning,0830.8,5.00,000.00,029.0,027.5,000.0,037.3,030.6,17.7,0000.0,0006.84,0004.18,0003.86
2023-09-14 10:33:00,SystemResetWarning,0830.8,5.00,000.00,029.0,027.5,000.0,037.3,030.6,17.7,0000.0,0007.52,0004.18,0003.86
2023-09-14 10:34:00,SystemResetWarning,0830.8,5.01,000.00,029.0,027.5,000.0,037.3,030.6,17.7,0000.0,0007.47,0004.18,0003.85
2023-09-14 10:35:00,SystemResetWarning,0830.8,5.01,000.00,029.0,027.5,000.0,037.4,030.6,17.8,0000.0,0007.42,0004.16,0003.84
2023-09-14 10:36:00,SystemResetWarning,0830.9,5.00,000.00,029.0,027.5,000.0,037.4,030.5,17.8,0000.0,0007.44,0004.17,0003.84
2023-09-14 10:37:00,SystemResetWarning,0830.8,4.99,000.00,029.0,027.5,000.0,037.4,030.5,17.8,0000.0,0007.46,0004.17,0003.83
2023-09-14 10:38:00,SystemResetWarning,0830.8,4.99,000.00,028.9,027.4,000.0,037.4,030.5,17.9,0000.0,0007.79,0004.18,0003.83
2023-09-14 10:39:00,SystemResetWarning,0830.8,5.00,000.00,028.9,027.4,000.0,037.4,030.5,17.9,0000.0,0008.08,0004.22,0003.85
2023-09-14 10:40:00,SystemResetWarning,0830.9,5.00,000.00,028.9,027.4,000.0,037.3,030.5,17.9,0000.0,0008.05,0004.21,0003.86
2023-09-14 10:41:00,SystemResetWarning,0830.8,5.01,000.00,028.9,027.4,000.0,037.4,030.5,17.9,0000.0,0008.07,0004.22,0003.86
2023-09-14 10:42:00,SystemResetWarning,0830.9,5.01,000.00,028.9,027.4,000.0,037.4,030.5,18.0,0000.0,0008.14,0004.24,0003.87
2023-09-14 10:43:00,SystemResetWarning,0830.9,5.00,000.00,028.9,027.4,000.0,037.4,030.5,18.0,0000.0,0008.02,0004.22,0003.87
2023-09-14 10:44:00,SystemResetWarning,0830.9,5.00,000.00,028.9,027.4,000.0,037.4,030.5,17.9,0000.0,0007.40,0004.22,0003.87
2023-09-14 10:45:00,SystemResetWarning,0830.9,4.99,000.00,028.9,027.4,000.0,037.4,030.5,17.9,0000.0,0007.41,0004.21,0003.87
2023-09-14 10:46:00,SystemResetWarning,0830.9,4.99,000.00,028.9,027.4,000.0,037.4,030.5,18.0,0000.0,0008.30,0004.25,0003.89
2023-09-14 10:47:00,SystemResetWarning,0831.0,5.01,000.00,028.9,027.4,000.0,037.4,030.5,18.0,0000.0,0008.37,0004.25,0003.90
2023-09-14 10:48:00,SystemResetWarning,0831.1,5.01,000.00,028.9,027.4,000.0,037.4,030.5,18.0,0000.0,0008.50,0004.27,0003.89
2023-09-14 10:49:00,SystemResetWarning,0831.1,5.00,000.00,028.9,027.5,000.0,037.4,030.5,17.9,0000.0,0008.21,0004.26,0003.89
2023-09-14 10:50:00,SystemResetWarning,0831.1,4.99,000.00,028.9,027.5,000.0,037.4,030.4,18.0,0000.0,0007.92,0004.23,0003.88
2023-09-14 10:51:00,SystemResetWarning,0831.1,5.00,000.00,028.9,027.4,000.0,037.3,030.5,18.0,0000.0,0007.94,0004.23,0003.88
2023-09-14 10:52:00,SystemResetWarning,0831.1,5.00,000.00,028.9,027.5,000.0,037.3,030.5,18.0,0000.0,0007.99,0004.24,0003.88
2023-09-14 10:53:00,SystemResetWarning,0831.2,4.99,000.00,028.9,027.5,000.0,037.3,030.5,17.9,0000.0,0007.99,0004.23,0003.90
2023-09-14 10:54:00,SystemResetWarning,0831.1,5.00,000.00,028.9,027.5,000.0,037.3,030.5,17.7,0000.0,0008.05,0004.26,0003.91
2023-09-14 10:55:00,SystemResetWarning,0831.1,5.01,000.00,028.9,027.5,000.0,037.3,030.6,17.5,0000.0,0008.14,0004.31,0003.93
2023-09-14 10:56:00,SystemResetWarning,0831.1,5.00,000.00,028.9,027.5,000.0,037.3,030.5,17.4,0000.0,0008.12,0004.32,0003.94
2023-09-14 10:57:00,SystemResetWarning,0831.1,5.00,000.00,028.9,027.5,000.0,037.3,030.5,17.3,0000.0,0007.35,0004.33,0003.96
2023-09-14 10:58:00,SystemResetWarning,0831.1,5.00,000.00,028.9,027.5,000.0,037.3,030.4,17.4,0000.0,0007.41,0004.34,0003.96
2023-09-14 10:59:00,SystemResetWarning,0831.1,5.00,000.00,028.9,027.5,000.0,037.4,030.5,17.6,0000.0,0007.33,0004.35,0003.98
